| time (UTC) | temp C | wind direction | speed KPH | gust KPH | rain 1hr cm | rain 24hr cm | rain mn cm | humidity % | barometer mb |
| 20260505211530 | 15 | 209 | 17.7 | 49.9 | 0.00 | 0.00 | 0.00 | 70 | 1005.5 |
| 20260505210028 | 15 | 150 | 25.7 | 43.5 | 0.00 | 0.00 | 0.00 | 70 | 1005.7 |
| 20260505204533 | 15 | 215 | 16.1 | 35.4 | 0.00 | 0.00 | 0.00 | 72 | 1005.7 |
| 20260505203034 | 15 | 194 | 14.5 | 35.4 | 0.00 | 0.00 | 0.00 | 73 | 1005.7 |
| 20260505201534 | 15 | 154 | 11.3 | 38.6 | 0.00 | 0.00 | 0.00 | 72 | 1005.8 |
| 20260505200032 | 15 | 200 | 14.5 | 35.4 | 0.00 | 0.00 | 0.00 | 73 | 1005.8 |
| 20260505194530 | 15 | 191 | 12.9 | 35.4 | 0.00 | 0.00 | 0.00 | 73 | 1006.2 |
| 20260505193030 | 15 | 133 | 9.7 | 30.6 | 0.00 | 0.00 | 0.00 | 74 | 1006.6 |
| 20260505191539 | 13 | 186 | 19.3 | 32.2 | 0.00 | 0.00 | 0.00 | 78 | 1006.6 |
| 20260505190037 | 11 | 161 | 17.7 | 40.2 | 0.00 | 0.00 | 0.00 | 85 | 1006.4 |
| 20260505184531 | 10 | 148 | 27.4 | 40.2 | 0.00 | 0.03 | 0.00 | 85 | 1006.5 |
| 20260505183030 | 10 | 156 | 30.6 | 38.6 | 0.00 | 0.03 | 0.00 | 85 | 1006.8 |
| 20260505181527 | 10 | 151 | 32.2 | 38.6 | 0.00 | 0.03 | 0.00 | 86 | 1007.0 |
| 20260505180037 | 10 | 144 | 29.0 | 38.6 | 0.00 | 0.03 | 0.00 | 85 | 1007.2 |
| 20260505174530 | 10 | 144 | 32.2 | 37.0 | 0.00 | 0.03 | 0.00 | 85 | 1007.5 |
| 20260505173030 | 10 | 146 | 30.6 | 38.6 | 0.00 | 0.03 | 0.00 | 85 | 1007.7 |
| 20260505171528 | 10 | 155 | 32.2 | 45.1 | 0.00 | 0.03 | 0.00 | 85 | 1007.8 |
| 20260505170034 | 11 | 141 | 19.3 | 35.4 | 0.00 | 0.03 | 0.00 | 79 | 1007.9 |
| 20260505164537 | 12 | 200 | 9.7 | 25.7 | 0.00 | 0.03 | 0.00 | 77 | 1008.4 |
| 20260505163032 | 13 | 192 | 9.7 | 32.2 | 0.00 | 0.03 | 0.00 | 76 | 1008.6 |
| 20260505161530 | 13 | 252 | 9.7 | 33.8 | 0.00 | 0.03 | 0.00 | 77 | 1008.6 |
| 20260505153037 | 14 | 146 | 12.9 | 32.2 | 0.00 | 0.03 | 0.00 | 74 | 1008.4 |
| 20260505151530 | 14 | 259 | 12.9 | 43.5 | 0.00 | 0.03 | 0.00 | 74 | 1008.6 |
| 20260505124530 | 10 | 157 | 25.7 | 29.0 | 0.00 | 0.03 | 0.00 | 83 | 1008.9 |
| 20260505123042 | 9 | 161 | 17.7 | 27.4 | 0.00 | 0.03 | 0.00 | 83 | 1009.0 |
| 20260505121532 | 10 | 165 | 17.7 | 27.4 | 0.00 | 0.03 | 0.00 | 83 | 1009.2 |
| 20260505120040 | 10 | 163 | 16.1 | 27.4 | 0.00 | 0.03 | 0.00 | 83 | 1009.1 |
| 20260505114530 | 10 | 187 | 14.5 | 22.5 | 0.00 | 0.03 | 0.00 | 81 | 1008.9 |
| 20260505113027 | 10 | 184 | 12.9 | 20.9 | 0.00 | 0.03 | 0.00 | 80 | 1008.8 |
| 20260505111533 | 10 | 190 | 14.5 | 19.3 | 0.00 | 0.03 | 0.00 | 81 | 1008.7 |
| 20260505101534 | 9 | 143 | 4.8 | 12.9 | 0.00 | 0.03 | 0.00 | 82 | 1008.9 |
| 20260505100032 | 9 | 190 | 3.2 | 12.9 | 0.00 | 0.03 | 0.00 | 82 | 1008.6 |
| 20260505094530 | 8 | 153 | 8.0 | 14.5 | 0.00 | 0.03 | 0.00 | 82 | 1008.5 |
| 20260505093027 | 8 | 169 | 9.7 | 17.7 | 0.00 | 0.03 | 0.00 | 82 | 1008.5 |
| 20260505091532 | 8 | 165 | 6.4 | 17.7 | 0.00 | 0.03 | 0.00 | 83 | 1008.2 |
| 20260505090030 | 8 | 163 | 8.0 | 12.9 | 0.00 | 0.03 | 0.00 | 83 | 1008.3 |
| 20260505084544 | 8 | 186 | 8.0 | 16.1 | 0.00 | 0.03 | 0.00 | 82 | 1008.3 |
| 20260505083046 | 8 | 197 | 4.8 | 11.3 | 0.00 | 0.03 | 0.00 | 82 | 1008.2 |
| 20260505081530 | 8 | 188 | 4.8 | 9.7 | 0.00 | 0.03 | 0.00 | 81 | 1008.2 |
| 20260505080043 | 9 | 171 | 4.8 | 11.3 | 0.00 | 0.03 | 0.00 | 81 | 1008.0 |
| 20260505074530 | 9 | 158 | 4.8 | 14.5 | 0.00 | 0.03 | 0.00 | 80 | 1008.0 |
| 20260505073040 | 9 | 174 | 6.4 | 14.5 | 0.00 | 0.03 | 0.00 | 80 | 1008.0 |
| 20260505071541 | 9 | 176 | 8.0 | 19.3 | 0.00 | 0.03 | 0.00 | 79 | 1008.0 |
| 20260505070040 | 9 | 232 | 6.4 | 20.9 | 0.00 | 0.03 | 0.00 | 79 | 1008.0 |
| 20260505064536 | 9 | 159 | 9.7 | 24.1 | 0.00 | 0.03 | 0.00 | 79 | 1008.0 |
| 20260505063038 | 9 | 199 | 11.3 | 17.7 | 0.00 | 0.03 | 0.00 | 79 | 1007.9 |
| 20260505061531 | 9 | 169 | 8.0 | 19.3 | 0.00 | 0.03 | 0.00 | 79 | 1007.9 |
| 20260505060051 | 9 | 190 | 8.0 | 20.9 | 0.00 | 0.03 | 0.00 | 79 | 1007.8 |
| 20260505054531 | 9 | 197 | 8.0 | 14.5 | 0.00 | 0.03 | 0.00 | 79 | 1007.8 |
| 20260505053037 | 10 | 201 | 8.0 | 19.3 | 0.00 | 0.03 | 0.00 | 79 | 1007.7 |
| 20260505051530 | 9 | 191 | 3.2 | 14.5 | 0.00 | 0.03 | 0.00 | 79 | 1007.5 |
| 20260505041536 | 8 | 164 | 4.8 | 11.3 | 0.00 | 0.03 | 0.00 | 82 | 1007.7 |
| 20260505040034 | 8 | 166 | 4.8 | 12.9 | 0.00 | 0.03 | 0.00 | 84 | 1007.7 |
| 20260505034530 | 7 | 0 | 0.0 | 1.6 | 0.00 | 0.03 | 0.03 | 84 | 1007.7 |
| 20260505033034 | 7 | 155 | 0.0 | 4.8 | 0.00 | 0.03 | 0.03 | 83 | 1007.6 |
| 20260505031532 | 7 | 0 | 0.0 | 4.8 | 0.00 | 0.03 | 0.03 | 84 | 1007.6 |
| 20260505030031 | 7 | 155 | 1.6 | 4.8 | 0.00 | 0.03 | 0.03 | 85 | 1007.7 |
| 20260505024528 | 7 | 0 | 0.0 | 6.4 | 0.00 | 0.03 | 0.03 | 85 | 1007.7 |
| 20260505023028 | 7 | 0 | 0.0 | 4.8 | 0.00 | 0.03 | 0.03 | 84 | 1007.5 |
| 20260505021531 | 7 | 157 | 0.0 | 1.6 | 0.00 | 0.03 | 0.03 | 82 | 1007.5 |
| 20260505020035 | 7 | 0 | 0.0 | 1.6 | 0.00 | 0.03 | 0.03 | 81 | 1007.5 |
| 20260505014535 | 7 | 0 | 0.0 | 1.6 | 0.00 | 0.03 | 0.03 | 81 | 1007.6 |
| 20260505013039 | 8 | 0 | 0.0 | 3.2 | 0.00 | 0.03 | 0.03 | 80 | 1007.4 |
| 20260505011535 | 8 | 0 | 0.0 | 3.2 | 0.00 | 0.03 | 0.03 | 79 | 1007.4 |
| 20260505010028 | 8 | 269 | 0.0 | 1.6 | 0.00 | 0.03 | 0.03 | 78 | 1007.3 |
| 20260505004541 | 8 | 0 | 0.0 | 3.2 | 0.00 | 0.03 | 0.03 | 78 | 1007.1 |
| 20260505003049 | 9 | 0 | 1.6 | 9.7 | 0.00 | 0.03 | 0.03 | 77 | 1006.8 |
| 20260505001528 | 9 | 201 | 9.7 | 24.1 | 0.00 | 0.03 | 0.03 | 77 | 1006.6 |
| 20260505000034 | 10 | 167 | 11.3 | 22.5 | 0.00 | 0.03 | 0.03 | 76 | 1006.2 |
| 20260504234530 | 10 | 213 | 12.9 | 19.3 | 0.00 | 0.03 | 0.03 | 73 | 1006.0 |
| 20260504233029 | 11 | 194 | 9.7 | 17.7 | 0.00 | 0.03 | 0.03 | 72 | 1005.7 |
| 20260504231527 | 12 | 168 | 11.3 | 17.7 | 0.00 | 0.03 | 0.03 | 69 | 1005.6 |
| 20260504230032 | 13 | 196 | 6.4 | 12.9 | 0.00 | 0.03 | 0.03 | 65 | 1005.4 |
| 20260504224530 | 14 | 167 | 8.0 | 12.9 | 0.00 | 0.03 | 0.03 | 62 | 1005.2 |
| 20260504223032 | 15 | 177 | 6.4 | 9.7 | 0.00 | 0.03 | 0.03 | 58 | 1005.4 |
| 20260504221529 | 16 | 199 | 3.2 | 11.3 | 0.00 | 0.03 | 0.03 | 57 | 1005.4 |
| 20260504220032 | 15 | 180 | 0.0 | 14.5 | 0.00 | 0.03 | 0.03 | 58 | 1005.3 |
| 20260504214529 | 15 | 188 | 3.2 | 16.1 | 0.00 | 0.03 | 0.03 | 57 | 1005.0 |
| 20260504213030 | 16 | 197 | 8.0 | 19.3 | 0.00 | 0.03 | 0.03 | 57 | 1004.9 |